Temperature
20 19 19 19 19 19 19 19 19 19 19 19 19 19 19 19 19 19 19 19 19 19 19 19 18 18 18 18 18 18 18 18 18 18 18 18 18 18 18 18 18 17 18
20 19 19 19 19 19 19 19 19 19 19 19 19 19 19 19 19 19 19 19 19 19 18 18 18 18 18 18 18 18 18 18 18 18 18 18 18 18 18 18 18 17 18
20 19 19 19 19 19 19 19 19 19 19 19 19 19 19 19 19 19 19 18 18 18 18 18 18 18 18 18 18 18 18 18 18 18 18 17 18 18 18 18 18 18 18
19 19 19 19 19 19 19 19 19 19 19 19 19 19 19 19 19 18 18 18 18 18 18 18 18 18 18 18 18 18 18 18 18 18 18 17 17 18 18 18 18 18 18
19 19 19 19 19 19 19 19 19 19 19 19 19 19 19 19 18 18 18 18 18 18 18 18 18 18 18 18 18 18 18 18 18 18 17 17 17 18 18 18 18 18 18
19 19 19 19 19 19 19 19 19 19 19 19 19 18 18 18 18 18 18 18 18 18 18 18 18 18 18 18 18 18 18 18 18 18 18 17 17 18 18 18 17 18 18
20 19 19 19 19 19 19 19 18 18 18 19 18 18 18 18 18 18 18 18 18 18 18 18 18 18 18 18 18 18 18 18 18 18 18 18 17 18 18 18 17 17 17
20 19 19 19 19 19 19 19 19 18 18 19 18 18 18 18 18 18 18 18 18 18 18 18 18 18 18 18 18 18 18 18 18 18 18 18 18 18 18 17 17 17 17
20 19 19 19 19 19 19 19 19 19 18 18 18 18 18 18 18 18 18 18 18 18 18 18 18 18 18 18 18 18 18 18 18 18 18 18 18 18 18 17 17 17 17
20 19 19 19 18 18 18 19 19 19 18 18 18 18 18 18 18 18 18 18 18 18 18 18 18 18 18 18 18 18 18 18 18 18 18 18 18 18 18 18 17 17 17
19 19 19 19 19 18 18 18 18 18 18 18 18 18 18 18 18 18 18 18 18 18 18 18 18 18 18 18 18 18 18 18 18 18 18 18 18 18 18 18 17 17 17
20 19 19 19 19 18 18 18 18 18 18 18 18 18 18 18 18 18 18 18 18 18 18 18 18 18 18 18 18 18 18 18 18 18 18 18 18 18 18 18 17 17 17
20 19 19 19 19 19 18 18 18 18 18 18 18 18 18 18 18 18 18 18 18 18 18 18 18 18 18 18 18 18 18 18 18 18 18 18 18 18 18 18 18 17 17
20 19 19 19 19 19 19 18 18 18 18 18 18 18 18 18 18 18 18 18 18 18 18 18 18 18 18 18 18 18 18 18 18 18 18 18 18 18 18 18 18 17 17
19 19 19 19 19 18 19 18 18 18 18 18 18 18 18 18 18 18 18 18 18 18 18 18 18 18 18 18 18 18 18 18 18 18 18 18 18 18 18 18 17 17 17
19 19 19 18 18 18 18 18 18 18 18 18 18 18 18 18 18 18 18 18 18 18 18 18 18 18 18 18 18 17 18 18 18 17 17 17 18 18 18 17 17 17 17
19 19 19 19 18 19 18 18 18 18 18 18 18 18 18 18 18 18 18 18 18 18 18 18 18 18 18 18 18 17 18 17 17 17 17 17 17 17 18 18 18 17 17
19 19 19 19 18 18 18 18 18 18 18 18 18 18 18 18 18 18 18 18 18 18 18 18 18 18 18 18 18 18 17 17 17 17 17 17 17 17 17 17 18 17 17
19 19 19 18 18 18 18 18 18 18 18 18 18 18 18 18 18 18 18 18 18 18 18 18 18 18 18 18 18 17 17 17 17 17 17 17 17 17 17 17 17 17 17
19 19 19 18 18 18 18 18 18 18 18 18 18 18 18 18 18 18 17 18 17 17 17 17 17 17 17 17 18 18 17 17 17 17 17 17 17 17 17 17 17 17 17
19 19 19 19 18 18 18 18 18 18 18 18 18 18 18 18 18 18 17 17 17 17 17 17 17 17 17 17 18 18 18 18 17 17 17 17 17 17 17 17 16 17 17
19 19 19 19 19 19 18 18 18 18 18 18 17 18 17 18 18 17 17 17 17 17 17 17 17 17 17 17 18 18 19 19 18 18 17 17 17 17 17 17 16 16 16
19 19 19 19 19 19 18 18 18 18 18 18 17 17 17 18 18 18 17 17 17 17 17 17 17 17 17 17 17 18 19 20 19 18 17 17 17 16 17 17 16 16 16
20 19 19 19 19 19 18 18 18 18 18 18 17 17 17 17 17 17 17 17 17 17 17 17 17 17 17 17 17 17 17 18 18 19 18 17 17 16 16 16 16 16 16
20 19 19 19 19 19 18 18 18 18 18 17 17 17 17 17 17 17 17 17 17 17 17 16 16 16 16 17 17 17 17 17 17 18 18 18 17 17 16 16 16 16 16
20 19 19 19 19 19 19 18 18 18 17 17 17 17 17 17 17 17 17 17 16 16 16 16 16 16 16 16 16 16 17 17 17 17 18 17 17 17 16 16 16 16 15
Wind_Speed
3 5 7 4 4 5 6 7 8 8 8 8 9 9 9 9 9 9 9 9 9 9 9 9 10 11 11 11 11 12 12 13 12 12 12 11 10 10 10 11 11 11 11
4 6 7 4 5 5 6 7 7 8 8 9 8 8 8 8 8 8 8 8 8 8 8 9 9 10 11 11 11 12 12 12 12 12 12 12 11 10 10 9 8 8 12
5 6 6 6 5 5 6 6 6 7 8 9 8 8 8 8 7 8 7 7 7 8 9 9 9 9 10 10 11 11 11 12 12 12 12 11 11 11 10 9 9 9 11
5 6 7 8 6 5 5 5 5 6 7 8 8 8 7 7 6 6 6 5 5 7 8 9 9 9 9 9 10 10 11 11 12 12 11 9 10 11 11 10 11 11 11
6 6 9 8 6 6 5 3 5 7 7 8 8 7 7 6 5 5 5 4 4 5 7 9 9 9 9 10 9 9 10 11 12 12 9 8 8 11 11 11 11 12 12
6 6 9 7 7 6 6 7 8 8 8 8 8 7 6 5 5 4 4 3 4 5 6 8 7 8 9 10 10 9 9 11 12 10 8 8 8 11 11 11 11 12 13
6 6 9 8 6 7 7 7 8 8 8 7 7 6 5 5 4 4 3 3 4 4 6 7 6 6 6 8 10 10 9 10 9 8 8 8 7 11 11 11 11 12 12
5 5 8 8 6 6 7 7 7 7 6 6 6 5 5 4 3 3 3 3 3 5 6 6 6 5 6 7 9 10 10 10 9 7 6 6 7 10 11 11 11 12 12
5 5 5 6 6 6 6 7 7 6 5 5 5 5 4 3 3 2 3 2 3 4 4 5 4 5 5 6 8 9 9 9 7 6 6 6 8 10 10 10 10 11 12
5 5 4 4 4 4 6 7 6 5 5 4 5 4 3 3 3 3 2 3 3 3 3 3 3 3 5 6 7 9 10 10 7 7 5 6 9 10 10 10 9 10 12
4 4 4 4 4 3 4 6 5 5 4 3 4 4 3 2 2 3 3 4 3 3 3 3 3 3 5 7 7 8 10 7 6 5 4 6 8 9 10 10 10 10 11
5 4 4 3 3 3 3 3 2 3 3 2 3 2 2 2 1 1 5 3 3 3 3 3 4 5 5 5 7 9 6 6 5 5 5 8 8 9 10 10 10 11 11
4 4 4 4 3 2 2 2 2 2 2 3 3 2 2 1 1 1 1 3 3 3 2 4 4 2 1 1 1 3 3 4 4 4 5 9 9 9 9 10 10 10 11
4 4 3 3 3 3 2 2 2 2 2 2 3 2 2 1 1 1 1 1 1 1 1 1 1 1 1 0 1 1 2 2 3 3 5 8 9 9 9 9 10 10 10
4 3 4 3 3 2 2 1 2 2 1 2 2 2 2 1 1 1 1 1 1 1 1 1 1 1 0 1 1 1 1 1 2 3 5 8 8 8 8 9 10 10 10
3 3 3 3 3 2 2 1 1 1 1 1 1 2 2 1 1 1 1 0 1 1 0 0 0 1 1 0 0 0 1 1 1 2 3 7 8 8 8 9 9 9 10
3 3 3 3 3 2 1 0 0 1 1 1 1 1 1 1 1 1 1 1 1 0 1 1 1 1 1 1 1 1 1 1 1 1 1 2 6 8 8 8 8 8 9
3 3 2 2 2 2 1 0 0 1 1 1 1 1 1 2 1 1 1 1 0 1 1 1 1 0 1 1 1 0 0 1 1 1 1 2 2 4 8 8 7 8 9
3 3 3 2 2 1 1 1 0 1 1 1 1 1 2 1 1 1 1 1 1 1 1 1 1 1 1 1 1 1 1 1 2 1 1 1 2 2 3 7 8 7 7
3 3 2 3 2 1 1 1 1 1 1 1 1 2 1 1 1 1 0 1 1 1 1 1 0 1 1 1 2 1 1 1 2 1 2 2 2 3 2 3 5 7 8
3 3 3 3 3 2 1 1 1 0 1 1 1 2 2 1 1 1 2 1 1 1 2 2 1 1 1 1 2 2 2 3 2 2 2 2 2 2 2 2 2 2 5
4 4 4 3 3 3 2 1 1 0 0 1 1 2 2 1 1 1 1 1 1 1 1 2 2 2 1 1 2 2 2 3 3 3 2 2 2 2 2 2 2 2 2
4 4 3 3 3 2 2 2 1 1 1 0 1 1 2 2 1 2 1 2 2 1 1 1 2 2 2 1 2 2 2 1 1 3 2 2 2 1 2 2 3 3 3
4 4 4 3 2 2 2 2 1 0 0 1 1 1 1 1 1 1 1 1 2 1 1 2 1 2 3 2 1 1 3 3 2 1 3 2 2 2 2 2 2 3 3
4 4 4 4 3 2 2 2 2 1 1 0 0 1 1 1 1 1 1 1 1 1 2 2 2 3 2 2 2 1 2 2 3 3 2 2 2 2 2 2 2 2 3
5 5 4 4 3 3 2 2 1 1 1 1 1 0 1 0 0 1 1 1 1 1 1 1 1 1 2 2 3 2 2 2 2 3 4 4 3 2 2 2 2 2 3
Wind_Direction
62 72 92 83 81 99 108 118 128 131 137 138 137 142 148 153 154 154 156 158 161 166 168 169 169 166 164 163 161 158 156 156 159 161 161 162 160 160 163 167 172 168 153
81 83 97 96 91 96 104 115 124 130 133 135 134 134 138 146 153 158 160 160 166 172 172 171 170 168 167 167 167 166 164 163 165 168 170 170 168 166 169 174 181 155 157
91 93 105 99 100 92 100 118 130 134 136 138 139 134 131 137 145 154 158 163 175 180 180 175 171 169 168 169 170 171 170 171 171 175 184 182 171 172 175 173 170 164 169
99 101 93 96 96 91 94 110 127 133 138 141 142 138 133 131 137 148 150 162 175 173 175 172 172 171 172 172 176 177 176 177 179 186 190 185 178 169 178 179 176 176 178
101 101 96 94 90 86 86 97 132 127 125 130 134 134 132 132 134 134 140 149 153 156 163 167 173 175 175 176 178 181 184 186 191 199 191 189 183 165 180 185 184 185 185
109 105 101 97 92 82 75 75 108 113 116 120 127 129 124 120 122 119 111 116 139 150 156 158 165 173 178 178 180 185 188 192 200 193 194 195 183 171 185 190 191 190 187
107 105 106 99 89 80 80 84 91 97 103 112 119 121 118 115 116 112 105 103 128 144 151 151 154 164 178 182 181 184 188 198 204 192 191 196 182 172 189 194 196 193 186
106 109 112 114 98 85 83 86 89 95 101 107 113 114 111 107 99 94 95 93 113 134 147 157 161 164 175 183 183 185 190 205 197 195 195 191 170 176 189 194 198 195 188
104 103 105 119 119 112 94 85 88 90 93 100 107 109 108 104 97 96 91 84 97 120 140 153 160 163 170 180 182 179 184 207 204 186 190 187 165 179 191 195 200 197 194
102 100 100 103 102 112 114 104 92 88 90 99 106 112 122 142 142 134 131 101 99 111 129 149 154 168 179 179 180 179 189 205 202 195 192 162 158 178 189 192 197 194 191
107 103 100 103 103 97 99 109 122 121 116 136 134 137 161 154 133 141 85 83 89 102 118 137 147 171 187 176 177 188 200 199 195 199 188 151 167 183 191 194 195 195 196
119 114 106 96 92 101 99 100 104 110 105 97 86 102 104 84 60 62 101 111 111 125 143 152 168 191 212 185 176 197 199 192 197 191 167 158 177 189 196 196 196 200 201
125 121 113 106 101 94 91 93 83 90 95 95 80 86 98 70 77 73 107 142 157 171 176 160 189 191 156 134 214 194 195 194 192 190 158 163 181 194 200 199 199 203 204
123 121 113 110 103 86 71 78 90 86 89 74 74 38 58 56 31 43 25 73 115 118 124 152 149 104 100 131 221 223 191 203 190 181 151 164 180 191 200 205 205 208 207
127 125 120 110 103 107 100 38 81 72 62 71 49 46 23 37 36 46 30 30 63 91 127 152 107 111 175 183 217 220 219 194 196 195 158 164 181 192 202 208 209 209 210
140 133 127 124 116 112 114 96 33 61 75 51 39 26 353 3 32 31 73 68 67 73 46 275 169 188 217 302 249 239 256 174 167 213 179 167 177 188 202 207 213 211 210
148 141 137 136 124 128 134 145 101 30 43 28 43 31 352 352 26 11 47 72 56 115 176 217 239 196 195 180 191 203 186 150 139 166 205 193 177 181 189 198 209 213 211
154 147 152 148 136 146 146 143 1 5 27 4 12 48 44 19 352 326 27 28 338 236 194 180 241 218 217 208 190 239 183 149 146 157 177 192 195 180 178 188 203 210 209
156 155 158 154 142 148 140 152 161 52 25 360 9 33 57 45 351 320 9 3 274 266 266 259 119 277 236 245 207 193 207 174 154 153 155 189 182 199 186 169 187 200 205
133 137 143 142 134 142 150 149 121 65 48 32 36 39 26 30 18 338 70 359 312 336 313 318 294 269 267 269 266 208 224 200 189 175 208 194 199 202 204 193 189 194 194
132 133 137 139 137 154 165 195 182 111 37 45 52 40 27 10 11 348 346 14 326 343 324 307 284 215 235 251 248 227 197 192 196 207 210 219 206 205 195 197 198 206 189
136 140 148 158 156 176 179 205 213 222 340 57 38 50 25 17 359 19 355 325 344 334 318 313 295 291 267 254 280 266 231 182 188 196 205 208 232 218 204 191 185 203 242
150 153 153 161 164 184 192 193 182 174 208 125 65 63 32 19 33 11 350 326 341 320 336 305 297 291 291 278 304 299 288 285 235 174 200 210 224 231 236 203 198 198 218
162 153 146 146 158 172 186 201 205 235 316 355 351 53 53 30 20 19 340 329 314 320 343 309 324 296 285 277 248 286 312 332 293 238 191 184 209 224 242 248 211 203 213
159 153 149 148 146 154 186 195 220 245 271 305 46 80 356 40 16 2 356 343 322 324 347 347 349 316 288 285 280 256 253 257 273 278 268 257 222 210 219 235 244 232 221
159 158 155 153 154 155 163 169 200 268 298 337 360 335 269 276 36 12 341 337 317 325 338 327 328 335 323 317 300 293 279 274 271 271 271 272 271 238 221 236 244 245 237
Height
1505 1504 1501 1500 1500 1499 1499 1500 1501 1502 1503 1504 1505 1507 1508 1509 1510 1510 1511 1512 1513 1514 1515 1517 1518 1520 1521 1523 1525 1526 1528 1530 1531 1533 1535 1536 1537 1539 1540 1541 1543 1544 1545
1506 1504 1502 1501 1501 1501 1501 1501 1502 1503 1504 1505 1506 1508 1508 1509 1510 1510 1511 1512 1513 1513 1515 1516 1518 1520 1521 1523 1525 1527 1528 1530 1531 1533 1535 1536 1537 1539 1540 1541 1542 1544 1545
1507 1506 1504 1503 1502 1502 1502 1503 1503 1504 1505 1506 1507 1508 1509 1510 1510 1511 1511 1511 1511 1511 1512 1515 1517 1519 1521 1523 1525 1526 1528 1530 1531 1533 1535 1537 1538 1538 1540 1541 1542 1543 1545
1508 1507 1506 1505 1504 1504 1504 1503 1504 1505 1506 1507 1508 1509 1510 1510 1511 1511 1510 1509 1508 1508 1509 1513 1516 1518 1520 1522 1524 1526 1527 1529 1531 1532 1535 1537 1538 1538 1539 1540 1541 1542 1544
1509 1509 1507 1506 1506 1505 1504 1501 1500 1504 1507 1508 1509 1510 1511 1511 1511 1511 1510 1508 1506 1507 1508 1512 1515 1518 1520 1522 1523 1525 1527 1529 1530 1532 1535 1536 1537 1537 1538 1539 1540 1541 1543
1511 1511 1509 1508 1508 1507 1505 1501 1499 1505 1508 1509 1510 1511 1512 1512 1512 1511 1510 1507 1506 1507 1508 1511 1515 1517 1519 1521 1523 1525 1526 1528 1530 1532 1534 1535 1536 1536 1537 1538 1539 1540 1542
1512 1512 1511 1510 1510 1509 1508 1506 1507 1509 1510 1511 1512 1513 1513 1513 1513 1512 1511 1509 1507 1508 1509 1512 1515 1517 1519 1521 1523 1524 1525 1527 1530 1532 1533 1534 1535 1535 1536 1537 1538 1540 1541
1513 1513 1513 1511 1511 1511 1511 1511 1511 1511 1512 1513 1513 1514 1514 1515 1515 1514 1513 1511 1510 1510 1511 1513 1516 1518 1519 1521 1522 1524 1525 1527 1530 1531 1532 1533 1533 1534 1535 1536 1537 1539 1540
1514 1514 1514 1515 1514 1513 1513 1513 1514 1514 1514 1515 1515 1516 1516 1516 1516 1516 1515 1514 1513 1513 1514 1515 1517 1518 1519 1520 1522 1523 1525 1527 1529 1530 1531 1532 1532 1533 1534 1535 1536 1537 1539
1515 1515 1515 1516 1516 1516 1516 1515 1515 1516 1516 1517 1517 1517 1518 1518 1518 1517 1517 1516 1516 1516 1516 1517 1518 1519 1520 1521 1522 1523 1525 1526 1528 1530 1530 1530 1530 1531 1533 1534 1535 1536 1537
1516 1516 1517 1517 1517 1517 1518 1517 1517 1518 1518 1518 1519 1519 1519 1519 1520 1519 1519 1518 1518 1518 1518 1519 1519 1520 1521 1521 1522 1523 1524 1526 1528 1529 1529 1529 1529 1530 1532 1533 1534 1535 1537
1517 1518 1518 1518 1518 1518 1518 1518 1519 1520 1519 1520 1520 1520 1520 1520 1520 1520 1519 1519 1519 1519 1519 1519 1520 1521 1522 1523 1523 1523 1525 1526 1527 1527 1527 1527 1528 1529 1530 1532 1533 1534 1535
1518 1519 1519 1519 1519 1519 1519 1520 1520 1520 1520 1521 1520 1520 1520 1520 1521 1521 1521 1520 1520 1520 1520 1520 1521 1522 1523 1523 1524 1524 1524 1525 1526 1526 1526 1526 1527 1528 1529 1530 1531 1533 1534
1519 1519 1520 1520 1520 1520 1520 1520 1521 1521 1521 1522 1521 1521 1521 1521 1521 1521 1521 1521 1521 1521 1521 1521 1522 1522 1522 1523 1523 1523 1524 1524 1525 1525 1524 1524 1525 1526 1527 1528 1529 1530 1532
1520 1520 1520 1520 1520 1520 1520 1520 1521 1522 1522 1522 1521 1521 1521 1521 1521 1521 1520 1520 1521 1521 1521 1521 1521 1522 1522 1523 1523 1523 1523 1523 1523 1524 1524 1523 1524 1525 1525 1526 1527 1528 1529
1521 1521 1521 1521 1521 1520 1521 1521 1521 1522 1522 1523 1522 1522 1521 1522 1521 1521 1521 1520 1521 1521 1521 1521 1521 1521 1522 1522 1522 1522 1522 1522 1522 1522 1523 1522 1522 1523 1524 1525 1526 1526 1527
1521 1521 1521 1521 1521 1521 1521 1521 1522 1522 1523 1523 1522 1522 1521 1522 1521 1521 1521 1521 1521 1521 1520 1520 1521 1521 1521 1521 1521 1521 1521 1521 1521 1521 1522 1522 1522 1521 1522 1523 1523 1524 1525
1521 1521 1521 1522 1522 1521 1522 1522 1523 1523 1523 1522 1522 1522 1521 1521 1521 1521 1521 1521 1520 1521 1521 1520 1520 1521 1521 1521 1521 1521 1521 1520 1520 1520 1521 1521 1521 1522 1521 1521 1522 1523 1523
1520 1520 1520 1521 1521 1522 1522 1522 1522 1522 1522 1522 1522 1522 1521 1521 1521 1521 1521 1520 1520 1521 1520 1520 1520 1520 1520 1520 1520 1520 1520 1520 1520 1520 1520 1520 1520 1520 1521 1520 1520 1521 1521
1520 1520 1520 1520 1521 1521 1522 1522 1522 1522 1522 1522 1522 1521 1521 1521 1520 1520 1521 1520 1520 1520 1520 1519 1519 1518 1519 1519 1520 1519 1519 1519 1519 1519 1519 1519 1519 1519 1520 1520 1519 1519 1519
1519 1519 1520 1520 1521 1521 1522 1522 1522 1522 1522 1522 1522 1521 1520 1520 1520 1520 1520 1519 1519 1519 1518 1519 1518 1518 1518 1518 1519 1519 1518 1518 1518 1518 1518 1518 1518 1518 1518 1517 1518 1518 1518
1519 1519 1520 1520 1521 1521 1521 1521 1521 1521 1522 1522 1522 1521 1520 1520 1519 1520 1519 1519 1519 1518 1517 1517 1517 1517 1518 1517 1518 1517 1517 1518 1517 1517 1517 1517 1517 1517 1516 1516 1515 1515 1516
1518 1519 1519 1520 1520 1520 1521 1521 1521 1521 1521 1522 1521 1521 1520 1519 1519 1518 1518 1518 1518 1517 1517 1516 1516 1516 1517 1517 1516 1517 1516 1516 1516 1516 1516 1515 1515 1515 1515 1515 1515 1514 1514
1518 1518 1519 1519 1519 1520 1520 1521 1521 1521 1521 1521 1520 1520 1520 1519 1518 1518 1517 1517 1516 1516 1516 1516 1515 1515 1515 1516 1515 1515 1516 1515 1516 1515 1515 1514 1514 1513 1514 1514 1514 1513 1513
1517 1518 1518 1518 1519 1519 1519 1520 1520 1521 1521 1521 1520 1519 1519 1519 1517 1517 1516 1516 1515 1515 1514 1514 1514 1514 1514 1514 1515 1514 1514 1514 1514 1514 1513 1513 1513 1513 1512 1512 1512 1512 1511
1517 1517 1518 1518 1518 1519 1519 1519 1519 1520 1520 1520 1519 1519 1519 1518 1517 1516 1515 1514 1514 1514 1513 1513 1512 1512 1512 1512 1512 1513 1513 1513 1513 1513 1512 1512 1511 1511 1510 1510 1510 1510 1509